Maun, Botswana

4:14 PM CAT on May 29, 2017 (GMT +0200)
Maun

Weather History for FBMN - March, 2014

Change the Weather History Date:

Wednesday, March 19, 2014

  Actual Average Record
Temperature  
Mean Temperature 80 °F -  
Max Temperature 91 °F 86 °F 100 °F (2007)
Min Temperature 69 °F 63 °F 60 °F (2017)
Cooling Degree Days 15    
Growing Degree Days 30 (Base 50)    
Moisture  
Dew Point 66 °F    
Average Humidity 69    
Maximum Humidity 94    
Minimum Humidity 40    
Precipitation  
Precipitation 0.00 in - - ()
Sea Level Pressure  
Sea Level Pressure 30.02 in    
Wind  
Wind Speed 4 mph ()    
Max Wind Speed 8 mph    
Max Gust Speed -    
Visibility 6.2 miles    
Events      
Averages and records for this station are not official NWS values.
T = Trace of Precipitation, MM = Missing Value Source: Averaged Metar Reports

Daily Weather History Graph

Daily Weather History Graph

Search for Another Location

Airport or City:

Trip Planner

Search our weather history database for the weather conditions in past years. The results will help you decide how hot, cold, wet, or windy it might be!

Date:

Astronomy

Mar. 19, 2014 Rise Set
Actual Time 6:29 AM CAT 6:38 PM CAT
Civil Twilight 6:07 AM CAT 7:00 PM CAT
Nautical Twilight 5:42 AM CAT 7:25 PM CAT
Astronomical Twilight 5:16 AM CAT 7:51 PM CAT
Moon 8:30 PM CAT (3/19) 8:41 AM CAT (3/19)
Length of Visible Light 12h 52m
Length of Day
12h 08m
Waning Gibbous, 93% of the Moon is Illuminated
Mar 19
Waning Gibbous
Mar 24
Last Quarter
Mar 30
New
Apr 7
First Quarter
Apr 15
Full

Hourly Weather History & Observations

Time (CAT) Temp. Heat Index Dew Point Humidity Pressure Visibility Wind Dir Wind Speed Gust Speed Precip Events Conditions
12:00 AM 71.6 °F - 68.0 °F 88% 30.04 in 6.2 mi Variable 2.3 mph - N/A   Partly Cloudy
1:00 AM 71.6 °F - 68.0 °F 88% 30.04 in 6.2 mi SE 3.5 mph - N/A   Partly Cloudy
2:00 AM 72 °F - 67 °F 81%  in 6 mi SSW 3.5 mph - -   Partly Cloudy
2:00 AM 71.6 °F - 68.0 °F 88% 30.01 in 6.2 mi SSW 3.5 mph - N/A   Mostly Cloudy
3:00 AM 71.6 °F - 68.0 °F 88% 30.01 in 6.2 mi SSW 4.6 mph - N/A   Mostly Cloudy
4:00 AM 71.6 °F - 66.2 °F 83% 30.01 in 6.2 mi South 3.5 mph - N/A   Mostly Cloudy
5:00 AM 70 °F - 67 °F 87%  in 6 mi SE 4.6 mph - -   Partly Cloudy
5:00 AM 69.8 °F - 66.2 °F 88% 30.01 in 6.2 mi SE 4.6 mph - N/A   Mostly Cloudy
6:00 AM 69.8 °F - 66.2 °F 88% 30.04 in 6.2 mi South 6.9 mph - N/A   Mostly Cloudy
7:00 AM 69.8 °F - 68.0 °F 94% 30.04 in - SE 5.8 mph - N/A   Clear
8:00 AM 72 °F - 67 °F 81%  in 6 mi SE 8.1 mph - -   Partly Cloudy
8:00 AM 73.4 °F - 68.0 °F 83% 30.06 in - SE 8.1 mph - N/A   Clear
9:00 AM 75.2 °F - 66.2 °F 73% 30.06 in - SSE 5.8 mph - N/A   Clear
10:00 AM 80.6 °F 82.7 °F 66.2 °F 61% 30.06 in - ENE 4.6 mph - N/A   Clear
11:00 AM 86.0 °F 87.3 °F 64.4 °F 48% 30.06 in - NE 6.9 mph - N/A   Clear
12:00 PM 87.8 °F 89.4 °F 64.4 °F 46% 30.04 in - Variable 1.2 mph - N/A   Clear
1:00 PM 89.6 °F 90.1 °F 62.6 °F 40% 30.01 in 6.2 mi North 3.5 mph - N/A   Scattered Clouds
2:00 PM 89.6 °F 90.1 °F 62.6 °F 40% 29.98 in 6.2 mi WNW 6.9 mph - N/A   Scattered Clouds
3:00 PM 91.4 °F 93.2 °F 64.4 °F 41% 29.95 in 6.2 mi NNE 5.8 mph - N/A   Partly Cloudy
4:00 PM 89.6 °F 90.1 °F 62.6 °F 40% 29.95 in 6.2 mi South 4.6 mph - N/A   Partly Cloudy
5:00 PM 89.6 °F 90.1 °F 62.6 °F 40% 29.95 in 6.2 mi NE 4.6 mph - N/A   Scattered Clouds
6:00 PM 87.8 °F 89.4 °F 64.4 °F 46% 29.95 in 6.2 mi Variable 2.3 mph - N/A   Scattered Clouds
10:00 PM 75.2 °F - 68.0 °F 78% 30.04 in 6.2 mi SW 4.6 mph - N/A   Partly Cloudy
11:00 PM 75.2 °F - 66.2 °F 73% 30.04 in 6.2 mi SW 4.6 mph - N/A   Partly Cloudy